Theta_e
323 330 343 344 347 348 347 347 347 347 347 347 346 345 345 346 345 344 344 346 346 347 347 347 348 349 348 347 347 346 346 347 346 345 345 345 342 348 351 352 350 349 353
325 330 339 340 342 346 346 346 346 346 346 346 345 345 345 345 344 343 341 341 343 345 347 347 345 345 344 345 346 346 345 345 345 345 344 343 344 342 351 352 350 350 352
325 327 331 338 339 340 343 343 343 343 343 344 343 342 340 338 338 337 336 336 337 339 340 340 341 341 340 341 343 344 344 344 344 343 341 335 333 350 353 351 351 352 352
322 323 326 336 337 338 337 338 339 338 339 338 338 337 334 334 334 333 332 331 332 334 336 338 337 335 334 336 339 339 339 339 339 339 334 334 334 351 351 351 351 351 350
317 320 325 333 335 335 335 335 336 334 335 335 333 330 328 326 326 326 325 324 325 327 332 331 330 330 329 330 332 333 333 332 333 333 331 331 333 341 346 348 349 350 348
315 318 325 330 331 330 330 331 331 330 333 328 326 324 322 321 321 320 320 320 320 322 324 322 321 321 321 323 326 328 328 328 327 322 327 331 332 346 346 346 347 346 346
311 314 318 326 326 326 326 325 325 326 326 322 320 319 318 318 318 318 318 318 318 319 319 319 318 318 317 317 317 318 319 318 314 315 321 326 329 344 341 343 344 345 346
309 311 314 322 324 323 323 322 321 321 320 319 318 316 316 315 315 315 316 316 316 317 317 317 316 315 315 315 314 313 313 315 311 310 318 326 338 342 341 341 342 342 342
307 307 307 309 315 320 320 319 319 317 316 315 314 312 311 311 310 310 312 313 314 314 314 314 314 314 314 314 314 313 313 314 303 308 312 325 329 335 340 339 338 338 339
303 304 303 305 305 305 308 317 315 313 312 310 309 308 309 308 308 306 307 309 311 311 312 312 312 310 310 310 310 310 310 307 300 301 303 310 319 325 331 336 336 336 336
300 299 301 302 301 302 303 308 311 310 309 307 306 306 304 297 299 300 306 307 308 308 308 308 308 307 306 305 307 307 306 300 299 299 300 312 315 318 320 323 326 330 333
295 296 298 297 299 300 303 301 298 301 299 299 299 298 298 296 298 300 304 304 304 303 303 304 305 302 299 296 296 301 298 298 298 298 299 309 312 315 316 317 318 320 323
294 295 297 296 297 297 297 297 296 296 296 296 296 297 297 296 295 294 294 293 293 297 292 294 294 293 293 294 294 294 295 295 295 296 299 307 309 312 314 316 317 318 319
293 295 296 296 296 294 296 296 295 295 295 295 294 295 294 293 292 292 291 291 290 291 289 290 291 291 291 293 293 293 293 292 293 294 296 303 306 309 312 314 316 317 318
295 294 295 295 295 294 295 295 294 294 294 294 293 293 293 292 290 291 290 290 289 289 289 288 289 290 290 291 292 291 291 291 292 293 293 300 303 305 309 312 314 315 317
297 295 295 295 295 295 294 293 293 293 293 293 292 291 292 291 289 290 289 289 288 288 288 288 288 288 288 289 290 291 291 291 292 292 292 293 300 302 305 309 312 313 314
298 296 294 295 295 295 294 293 293 292 293 292 291 291 291 291 289 289 288 288 287 288 287 287 287 287 287 288 288 289 290 291 291 290 291 292 293 299 303 305 307 309 311
298 295 295 296 295 294 293 292 293 292 291 291 291 290 290 290 289 287 287 287 287 287 286 286 286 286 285 286 285 287 288 288 288 289 290 291 292 294 298 303 305 307 308
298 296 294 294 293 293 292 292 291 290 290 290 290 289 289 289 289 287 286 286 287 286 286 286 285 285 284 284 286 286 286 286 287 289 289 290 292 293 294 300 304 305 306
298 295 294 293 293 292 292 291 290 289 289 288 288 289 289 288 288 286 286 286 286 286 285 285 284 284 284 283 286 286 285 286 286 285 287 290 291 293 292 294 294 296 301
296 294 293 292 292 292 291 290 289 289 288 286 287 288 288 287 287 286 285 285 285 284 284 284 284 283 282 283 282 282 282 285 285 286 286 286 287 289 291 291 290 290 291
294 293 293 292 292 292 292 292 288 288 287 287 287 287 288 287 286 286 285 284 283 283 283 283 283 282 282 282 280 279 278 281 284 284 284 285 286 288 288 288 288 289 289
293 293 292 292 292 292 292 290 287 287 286 285 285 286 286 286 286 285 284 283 283 283 281 282 282 281 280 280 281 279 277 276 279 282 283 283 283 284 284 286 288 289 289
294 293 293 292 291 292 291 290 289 288 287 288 288 286 285 286 285 285 284 283 282 282 282 282 283 281 280 279 280 283 280 280 277 276 281 282 284 284 284 285 286 287 288
294 293 292 291 291 291 290 291 289 288 288 283 283 284 284 284 284 284 283 282 281 281 281 281 281 281 281 280 280 280 279 279 279 277 276 277 281 283 284 284 285 285 286
291 292 291 290 290 290 290 290 289 288 284 282 283 284 284 283 283 282 283 281 281 281 281 281 280 280 280 280 280 280 280 278 278 277 276 277 277 280 281 283 283 283 284
Wind_Speed
2 3 7 10 11 15 10 9 9 10 12 13 13 12 12 14 14 13 12 12 11 10 11 10 11 12 11 10 10 11 11 10 9 9 9 9 9 7 5 1 2 3 7
8 5 7 10 10 14 14 14 15 14 13 12 12 12 12 13 14 13 12 10 11 11 12 14 13 13 13 13 10 10 10 11 10 10 11 9 9 9 8 3 1 2 4
10 7 6 9 10 8 10 11 12 10 12 13 13 12 12 11 11 11 9 10 10 10 12 12 13 14 13 13 13 12 11 12 12 12 13 6 6 8 4 3 1 2 4
10 7 5 10 11 11 10 8 9 9 8 9 9 11 9 9 10 10 11 11 11 10 9 11 11 11 11 11 12 12 12 12 13 13 6 7 6 9 7 5 6 8 8
9 7 6 10 12 12 12 12 13 11 10 11 10 11 11 11 12 12 11 11 11 10 11 10 10 11 10 11 11 11 12 12 12 9 6 6 5 6 8 8 8 8 8
9 7 8 12 13 12 12 13 13 12 13 12 12 11 11 11 11 11 11 11 11 11 11 11 11 11 11 11 11 11 12 13 13 7 6 7 5 6 8 9 9 9 9
8 6 6 13 13 13 13 12 12 12 13 12 12 12 12 12 12 12 11 12 12 13 13 13 12 11 11 10 10 12 13 14 8 7 7 6 6 6 5 6 9 10 11
10 7 6 10 12 13 14 14 13 13 12 12 12 12 12 12 12 12 12 13 13 12 13 12 13 13 13 12 13 14 15 15 8 6 7 5 12 7 6 6 8 10 11
9 8 6 6 7 11 13 14 14 14 13 13 13 12 12 12 13 13 13 14 14 13 14 14 14 16 16 16 16 16 18 15 7 5 8 5 16 14 10 9 8 9 11
8 8 7 6 6 6 6 11 14 13 13 13 12 11 11 11 11 12 9 11 11 12 13 14 15 15 15 16 16 17 16 14 7 7 5 6 16 15 15 14 13 11 11
7 9 8 8 7 6 6 7 11 14 12 12 9 7 9 5 6 5 9 10 12 12 12 13 14 15 15 14 14 14 11 3 5 4 4 14 15 14 13 14 14 15 14
10 9 11 9 9 8 7 7 6 6 5 5 5 5 5 5 4 5 7 10 11 12 13 13 13 13 9 4 4 10 4 5 4 4 3 16 15 14 13 14 14 14 14
11 8 11 10 10 9 7 5 3 3 4 4 6 5 5 4 4 3 3 3 3 7 3 5 5 4 6 5 5 5 5 5 4 4 7 16 16 16 15 14 14 14 14
12 13 12 10 10 8 6 6 5 4 4 4 5 6 5 3 4 3 2 3 3 2 5 4 3 4 5 5 5 6 6 5 4 4 6 16 17 17 16 15 15 15 14
15 14 14 11 11 9 8 6 5 5 5 5 5 5 5 4 4 4 3 3 3 3 3 4 4 5 6 6 6 6 7 6 5 4 3 13 16 17 16 16 15 15 15
16 16 14 15 12 10 8 7 6 5 5 5 5 5 6 5 5 4 3 3 3 3 3 3 3 4 4 5 7 8 9 7 7 7 5 5 15 17 16 14 14 15 16
14 16 17 15 13 12 9 7 6 5 6 5 5 7 7 6 6 5 4 4 3 3 4 3 4 4 4 4 6 6 6 8 8 9 7 6 6 11 11 13 12 12 13
14 18 17 15 15 13 10 6 5 5 5 5 5 5 7 7 7 6 5 4 4 3 3 2 3 3 4 4 5 6 6 7 8 8 7 6 5 5 8 11 11 12 12
18 19 19 17 16 13 9 6 6 8 5 6 6 5 7 7 7 5 4 4 4 3 2 2 2 2 2 4 5 5 6 6 6 6 6 7 6 5 4 8 11 12 13
18 19 20 15 16 14 9 6 4 5 5 5 6 6 8 6 7 6 5 5 4 3 3 2 2 1 1 3 7 8 7 7 4 4 5 5 5 5 4 4 4 5 13
16 18 20 19 17 13 9 9 7 9 5 4 5 7 7 6 6 6 4 5 4 4 4 3 2 3 4 4 4 4 4 5 3 1 2 4 4 5 4 3 2 2 4
20 19 19 19 18 15 12 10 5 5 3 3 4 6 7 8 7 6 6 5 6 4 4 3 3 2 2 4 3 2 6 5 4 7 4 4 4 3 4 6 6 6 4
20 21 21 21 20 18 14 9 4 4 3 4 5 6 6 8 7 7 7 5 5 4 4 4 4 4 1 2 4 2 3 3 7 3 6 5 4 4 4 5 6 5 7
19 19 20 19 20 17 15 13 17 11 11 10 10 7 6 9 8 8 7 6 6 4 5 4 4 3 4 2 2 1 2 2 3 7 5 5 9 8 6 5 7 6 6
17 19 18 18 18 17 17 18 14 12 8 4 3 9 8 7 8 8 7 7 6 4 4 5 4 4 3 2 3 1 1 2 4 5 9 3 5 8 7 9 8 8 8
11 14 15 18 18 17 18 19 20 18 9 7 9 9 8 7 6 7 7 6 6 5 5 4 3 3 3 3 2 3 3 3 2 3 6 11 13 9 5 10 10 8 7
Wind_Direction
99 72 96 100 99 90 105 115 112 103 95 86 79 74 70 71 69 58 52 48 48 47 45 44 45 46 39 35 31 26 22 18 19 3 349 333 312 293 275 327 6 11 47
130 104 86 95 90 102 101 92 91 91 93 95 93 84 74 73 74 69 58 54 39 39 53 47 42 35 29 26 26 30 21 11 5 349 333 325 302 285 257 188 343 8 11
119 110 101 108 100 93 108 106 106 97 85 83 81 81 71 64 61 59 58 46 43 34 28 29 37 33 26 23 16 26 19 11 357 344 332 323 318 336 216 140 130 28 3
120 110 102 120 124 128 119 91 95 100 99 99 88 80 75 73 68 69 64 59 54 45 43 46 43 36 21 11 19 20 17 4 350 337 333 323 327 64 72 69 45 37 21
116 119 126 129 129 125 124 118 118 120 121 106 100 92 87 80 75 70 64 61 57 53 51 46 33 27 21 14 8 6 1 354 343 338 331 329 347 346 56 44 35 21 1
121 127 138 135 132 129 127 125 121 116 108 108 101 93 87 82 76 70 62 58 53 53 52 44 33 26 17 12 5 4 359 351 346 332 325 321 337 25 26 32 35 18 1
125 126 133 137 135 131 126 121 117 119 115 110 108 103 95 89 81 74 69 64 55 50 45 41 34 27 20 12 10 6 355 344 341 324 321 317 318 333 11 34 26 17 3
135 132 121 130 136 140 138 132 126 119 116 116 108 102 97 89 84 71 66 60 54 52 46 41 34 28 25 27 22 15 355 343 335 318 314 332 2 9 26 26 19 2 355
135 131 128 119 135 144 140 135 130 126 124 122 119 110 103 92 78 66 58 54 47 48 40 37 34 35 30 27 26 15 17 21 10 352 356 351 360 359 1 1 360 352 339
146 149 155 149 143 131 131 136 134 132 132 128 128 117 96 87 83 69 58 63 53 55 44 40 39 34 32 29 22 17 14 13 358 359 352 357 2 360 349 347 340 335 328
168 165 164 164 160 148 136 140 139 141 135 135 132 136 109 107 114 110 83 78 64 57 50 44 39 29 23 16 14 13 10 1 358 347 332 353 354 348 342 334 335 329 324
185 183 173 172 165 159 158 155 157 161 154 153 142 125 123 117 123 103 78 76 68 58 45 37 34 26 18 1 352 3 354 346 350 339 340 344 343 338 335 328 323 321 316
183 177 183 176 168 168 163 169 172 167 160 145 140 138 136 112 97 100 91 74 62 67 58 42 25 25 11 3 354 356 346 343 342 331 334 336 336 332 326 321 319 318 318
185 186 178 176 174 178 161 167 172 162 161 154 155 141 130 120 118 113 117 105 88 65 47 39 23 8 15 359 352 342 339 331 330 320 324 328 327 326 322 321 320 316 318
194 188 183 175 176 177 169 169 168 177 162 165 150 136 136 136 132 135 131 108 79 61 45 22 16 15 5 355 349 343 334 326 314 300 307 314 323 321 320 325 323 324 325
193 189 179 182 177 169 173 172 176 168 160 150 145 144 136 140 142 143 125 95 72 56 37 29 25 19 3 351 340 338 322 314 308 305 310 314 314 319 324 322 330 335 332
196 181 183 177 172 174 177 173 170 170 157 147 154 153 148 150 147 141 129 107 97 65 53 33 21 24 7 352 326 307 298 302 305 310 312 299 300 302 307 316 319 330 336
180 179 178 178 177 174 175 167 167 165 161 159 161 160 164 156 156 155 145 142 140 114 100 63 53 13 358 327 305 297 291 290 294 294 296 295 287 285 300 307 319 330 338
180 174 176 175 174 170 167 165 165 169 168 169 167 168 167 162 163 149 143 142 136 119 100 90 56 61 329 321 312 304 294 285 278 286 281 279 279 295 290 299 317 330 331
180 175 172 170 170 167 163 158 155 171 179 173 176 173 166 168 165 153 155 153 148 144 145 114 112 246 250 309 316 303 289 282 278 269 285 301 297 300 323 336 5 1 360
175 169 172 168 174 165 169 172 176 187 181 183 181 167 169 168 168 166 159 158 162 159 155 142 136 51 3 350 347 314 298 285 297 38 331 279 294 303 323 26 6 328 320
174 173 171 174 173 179 178 181 175 161 183 165 169 172 176 169 172 168 162 172 170 153 142 120 95 60 41 39 28 323 341 332 356 323 337 341 348 341 346 340 330 316 314
175 174 176 177 179 182 177 160 106 107 98 171 195 186 186 169 173 169 173 171 173 157 160 140 122 129 152 354 82 150 335 318 331 337 330 317 336 321 324 323 299 305 295
183 174 174 177 181 183 169 175 187 195 195 203 193 179 173 169 171 172 174 176 178 173 151 156 154 154 147 198 2 249 241 169 251 316 320 322 317 310 312 292 293 289 287
173 175 176 177 180 179 181 186 191 204 203 144 136 170 177 175 174 174 174 174 177 170 170 168 160 158 152 139 171 291 278 270 231 243 295 295 302 290 283 280 275 275 272
166 172 173 176 184 182 184 189 195 199 180 161 171 178 184 181 180 182 174 170 174 170 172 171 173 162 156 172 193 217 227 238 269 271 288 299 289 281 284 279 268 264 259